| time (UTC) | temp F | wind direction | speed knots | gust knots | rain 1hr in | rain 24hr in | rain mn in | humidity % | barometer mb |
| 20260901065924 | 67 | 233 | 1.7 | 4.3 | 0.00 | 0.00 | 0.00 | 63 | 1008.3 |
| 20260901063819 | 67 | 130 | 0.0 | 2.6 | 0.00 | 0.00 | 0.00 | 63 | 1008.6 |
| 20260901062755 | 67 | 143 | 0.0 | 0.0 | 0.00 | 0.00 | 0.00 | 63 | 1008.7 |
| 20260901061725 | 67 | 165 | 2.6 | 5.2 | 0.00 | 0.00 | 0.00 | 62 | 1008.5 |
| 20260901060714 | 67 | 200 | 2.6 | 5.2 | 0.00 | 0.00 | 0.00 | 63 | 1008.2 |
| 20260901055735 | 67 | 202 | 1.7 | 6.1 | 0.00 | 0.00 | 0.00 | 63 | 1008.0 |
| 20260901054723 | 67 | 199 | 1.7 | 6.1 | 0.00 | 0.00 | 0.00 | 63 | 1008.3 |
| 20260901053653 | 67 | 180 | 1.7 | 4.3 | 0.00 | 0.00 | 0.00 | 63 | 1008.3 |
| 20260901051526 | 67 | 230 | 2.6 | 7.0 | 0.00 | 0.00 | 0.00 | 63 | 1008.5 |
| 20260901050551 | 67 | 151 | 3.5 | 8.7 | 0.00 | 0.00 | 0.00 | 62 | 1008.6 |
| 20260901045538 | 67 | 184 | 4.3 | 12.2 | 0.00 | 0.00 | 0.00 | 61 | 1008.8 |
| 20260901044556 | 67 | 165 | 7.0 | 12.2 | 0.00 | 0.00 | 0.00 | 61 | 1008.7 |
| 20260901042409 | 68 | 133 | 5.2 | 9.6 | 0.00 | 0.00 | 0.00 | 60 | 1008.6 |
| 20260901041427 | 69 | 140 | 1.7 | 3.5 | 0.00 | 0.00 | 0.00 | 60 | 1008.9 |
| 20260901040424 | 69 | 113 | 1.7 | 7.8 | 0.00 | 0.00 | 0.00 | 60 | 1008.6 |
| 20260901033222 | 71 | 186 | 4.3 | 9.6 | 0.00 | 0.00 | 0.00 | 50 | 1006.9 |
| 20260901032207 | 72 | 168 | 3.5 | 9.6 | 0.00 | 0.00 | 0.00 | 49 | 1006.9 |
| 20260901031215 | 72 | 186 | 2.6 | 7.8 | 0.00 | 0.00 | 0.00 | 48 | 1006.7 |
| 20260901030147 | 73 | 182 | 2.6 | 7.8 | 0.00 | 0.00 | 0.00 | 47 | 1006.2 |
| 20260901025127 | 73 | 233 | 4.3 | 7.8 | 0.00 | 0.00 | 0.00 | 47 | 1005.7 |
| 20260901024129 | 72 | 237 | 3.5 | 7.8 | 0.00 | 0.00 | 0.00 | 47 | 1005.6 |
| 20260901023129 | 72 | 210 | 4.3 | 8.7 | 0.00 | 0.00 | 0.00 | 47 | 1005.3 |
| 20260901022109 | 72 | 213 | 5.2 | 11.3 | 0.00 | 0.00 | 0.00 | 48 | 1005.2 |
| 20260901021037 | 72 | 242 | 7.0 | 11.3 | 0.00 | 0.00 | 0.00 | 48 | 1005.0 |
| 20260901020007 | 73 | 224 | 6.1 | 14.8 | 0.00 | 0.00 | 0.00 | 49 | 1004.8 |
| 20260901014935 | 73 | 200 | 7.8 | 14.8 | 0.00 | 0.00 | 0.00 | 49 | 1004.6 |
| 20260901013955 | 73 | 239 | 7.8 | 13.0 | 0.00 | 0.00 | 0.00 | 50 | 1004.4 |
| 20260901010634 | 74 | 214 | 6.1 | 13.9 | 0.00 | 0.00 | 0.00 | 49 | 1004.2 |
| 20260901005653 | 74 | 166 | 7.8 | 16.5 | 0.00 | 0.00 | 0.00 | 49 | 1004.5 |
| 20260901004649 | 75 | 183 | 8.7 | 16.5 | 0.00 | 0.00 | 0.00 | 48 | 1004.5 |
| 20260901003705 | 75 | 177 | 8.7 | 15.6 | 0.00 | 0.00 | 0.00 | 47 | 1004.5 |
| 20260901002647 | 76 | 221 | 7.8 | 15.6 | 0.00 | 0.00 | 0.00 | 46 | 1004.4 |
| 20260901001651 | 76 | 215 | 7.0 | 13.9 | 0.00 | 0.00 | 0.00 | 46 | 1004.4 |
| 20260901000630 | 77 | 175 | 7.8 | 16.5 | 0.00 | 0.00 | 0.00 | 45 | 1004.4 |
| 20260831234519 | 77 | 157 | 9.6 | 15.6 | 0.00 | 0.00 | 0.00 | 46 | 1004.4 |
| 20260831233459 | 79 | 163 | 8.7 | 18.2 | 0.00 | 0.00 | 0.00 | 44 | 1004.5 |
| 20260831232436 | 80 | 178 | 12.2 | 18.2 | 0.00 | 0.00 | 0.00 | 42 | 1004.4 |
| 20260831231440 | 81 | 164 | 10.4 | 19.1 | 0.00 | 0.00 | 0.00 | 41 | 1004.1 |
| 20260831230453 | 80 | 204 | 12.2 | 20.9 | 0.00 | 0.00 | 0.00 | 42 | 1004.0 |
| 20260831225446 | 81 | 163 | 11.3 | 21.7 | 0.00 | 0.00 | 0.00 | 40 | 1003.8 |
| 20260831224421 | 81 | 132 | 12.2 | 21.7 | 0.00 | 0.00 | 0.00 | 40 | 1004.0 |
| 20260831222306 | 83 | 100 | 12.2 | 19.1 | 0.00 | 0.00 | 0.00 | 37 | 1004.2 |
| 20260831220116 | 85 | 91 | 11.3 | 19.1 | 0.00 | 0.00 | 0.00 | 35 | 1004.4 |
| 20260831213958 | 85 | 72 | 11.3 | 19.1 | 0.00 | 0.00 | 0.00 | 36 | 1004.4 |
| 20260831213022 | 86 | 63 | 11.3 | 19.1 | 0.00 | 0.00 | 0.00 | 35 | 1004.9 |
| 20260831210834 | 84 | 90 | 7.8 | 17.4 | 0.00 | 0.00 | 0.00 | 35 | 1005.2 |
| 20260831204651 | 86 | 98 | 4.3 | 14.8 | 0.00 | 0.00 | 0.00 | 34 | 1005.4 |
| 20260831203658 | 85 | 80 | 5.2 | 12.2 | 0.00 | 0.00 | 0.00 | 33 | 1005.7 |
| 20260831202654 | 84 | 58 | 4.3 | 12.2 | 0.00 | 0.00 | 0.00 | 35 | 1006.0 |
| 20260831201622 | 84 | 55 | 6.1 | 12.2 | 0.00 | 0.00 | 0.00 | 34 | 1006.0 |
| 20260831200624 | 86 | 94 | 5.2 | 11.3 | 0.00 | 0.00 | 0.00 | 32 | 1006.0 |
| 20260831195629 | 85 | 150 | 5.2 | 11.3 | 0.00 | 0.00 | 0.00 | 34 | 1006.2 |
| 20260831194625 | 85 | 79 | 7.0 | 12.2 | 0.00 | 0.00 | 0.00 | 32 | 1006.3 |
| 20260831193624 | 84 | 138 | 5.2 | 12.2 | 0.00 | 0.00 | 0.00 | 34 | 1006.3 |
| 20260831192643 | 84 | 155 | 6.1 | 10.4 | 0.00 | 0.00 | 0.00 | 33 | 1006.4 |
| 20260831191653 | 83 | 59 | 7.8 | 13.9 | 0.00 | 0.00 | 0.00 | 35 | 1006.6 |
| 20260831190624 | 83 | 123 | 7.8 | 16.5 | 0.00 | 0.00 | 0.00 | 36 | 1006.6 |
| 20260831185601 | 82 | 107 | 8.7 | 16.5 | 0.00 | 0.00 | 0.00 | 37 | 1006.6 |
| 20260831184621 | 82 | 121 | 7.8 | 16.5 | 0.00 | 0.00 | 0.00 | 37 | 1006.8 |
| 20260831183633 | 82 | 137 | 7.8 | 16.5 | 0.00 | 0.00 | 0.00 | 38 | 1007.0 |
| 20260831182626 | 81 | 115 | 7.8 | 14.8 | 0.00 | 0.00 | 0.00 | 37 | 1007.0 |
| 20260831181606 | 80 | 115 | 7.8 | 14.8 | 0.00 | 0.00 | 0.00 | 39 | 1007.1 |
| 20260831180603 | 80 | 80 | 7.8 | 13.9 | 0.00 | 0.00 | 0.00 | 40 | 1007.2 |
| 20260831175604 | 79 | 84 | 7.8 | 13.9 | 0.00 | 0.00 | 0.00 | 39 | 1007.3 |
| 20260831173525 | 78 | 44 | 7.8 | 16.5 | 0.00 | 0.00 | 0.00 | 43 | 1007.6 |
| 20260831172510 | 78 | 85 | 8.7 | 16.5 | 0.00 | 0.00 | 0.00 | 42 | 1007.5 |
| 20260831171521 | 78 | 117 | 8.7 | 16.5 | 0.00 | 0.00 | 0.00 | 43 | 1007.6 |
| 20260831170531 | 76 | 140 | 9.6 | 16.5 | 0.00 | 0.00 | 0.00 | 43 | 1007.6 |
| 20260831165515 | 76 | 97 | 8.7 | 15.6 | 0.00 | 0.00 | 0.00 | 47 | 1007.6 |
| 20260831164530 | 76 | 99 | 9.6 | 15.6 | 0.00 | 0.00 | 0.00 | 46 | 1007.5 |
| 20260831163520 | 76 | 83 | 8.7 | 14.8 | 0.00 | 0.00 | 0.00 | 48 | 1007.5 |
| 20260831161403 | 76 | 119 | 8.7 | 13.0 | 0.00 | 0.00 | 0.00 | 48 | 1007.5 |
| 20260831160346 | 76 | 125 | 7.0 | 13.9 | 0.00 | 0.00 | 0.00 | 48 | 1007.4 |
| 20260831155330 | 75 | 123 | 8.7 | 13.9 | 0.00 | 0.00 | 0.00 | 47 | 1007.2 |
| 20260831154345 | 74 | 95 | 8.7 | 13.9 | 0.00 | 0.00 | 0.00 | 48 | 1007.1 |
| 20260831153317 | 73 | 150 | 9.6 | 16.5 | 0.00 | 0.00 | 0.00 | 53 | 1006.9 |
| 20260831151116 | 72 | 117 | 8.7 | 15.6 | 0.00 | 0.00 | 0.00 | 60 | 1006.9 |
| 20260831150109 | 72 | 117 | 7.8 | 14.8 | 0.00 | 0.00 | 0.00 | 63 | 1006.9 |
| 20260831145044 | 71 | 91 | 7.8 | 13.9 | 0.00 | 0.00 | 0.00 | 63 | 1006.7 |
| 20260831144030 | 71 | 92 | 7.8 | 13.9 | 0.00 | 0.00 | 0.00 | 63 | 1006.6 |
| 20260831143034 | 70 | 123 | 7.0 | 13.0 | 0.00 | 0.00 | 0.00 | 64 | 1006.4 |
| 20260831142028 | 70 | 113 | 6.1 | 13.0 | 0.00 | 0.00 | 0.00 | 64 | 1006.2 |
| 20260831141047 | 68 | 115 | 7.8 | 13.0 | 0.00 | 0.00 | 0.00 | 67 | 1006.2 |
| 20260831140014 | 67 | 127 | 8.7 | 14.8 | 0.00 | 0.00 | 0.00 | 70 | 1005.9 |
| 20260831134947 | 67 | 124 | 8.7 | 15.6 | 0.00 | 0.00 | 0.00 | 70 | 1005.9 |
| 20260831133933 | 67 | 113 | 9.6 | 15.6 | 0.00 | 0.00 | 0.00 | 69 | 1005.9 |
| 20260831132926 | 67 | 133 | 7.0 | 12.2 | 0.00 | 0.00 | 0.00 | 70 | 1005.9 |
| 20260831131944 | 66 | 134 | 7.0 | 11.3 | 0.00 | 0.00 | 0.00 | 71 | 1005.7 |
| 20260831130959 | 66 | 109 | 2.6 | 7.8 | 0.00 | 0.00 | 0.00 | 71 | 1005.7 |
| 20260831130010 | 66 | 94 | 1.7 | 7.8 | 0.00 | 0.00 | 0.00 | 70 | 1005.6 |
| 20260831124937 | 67 | 132 | 3.5 | 8.7 | 0.00 | 0.00 | 0.00 | 69 | 1005.5 |
| 20260831123934 | 67 | 104 | 4.3 | 9.6 | 0.00 | 0.00 | 0.00 | 68 | 1005.4 |
| 20260831122933 | 67 | 111 | 6.1 | 11.3 | 0.00 | 0.00 | 0.00 | 67 | 1005.2 |
| 20260831121859 | 67 | 111 | 9.6 | 17.4 | 0.00 | 0.00 | 0.00 | 69 | 1005.1 |
| 20260831120916 | 66 | 130 | 8.7 | 17.4 | 0.00 | 0.00 | 0.00 | 70 | 1005.2 |
| 20260831114812 | 66 | 98 | 6.1 | 11.3 | 0.00 | 0.00 | 0.00 | 70 | 1005.5 |
| 20260831113817 | 67 | 77 | 6.1 | 11.3 | 0.00 | 0.00 | 0.00 | 68 | 1005.7 |
| 20260831112822 | 67 | 90 | 6.1 | 10.4 | 0.00 | 0.00 | 0.00 | 66 | 1005.6 |
| 20260831111808 | 67 | 105 | 5.2 | 10.4 | 0.00 | 0.00 | 0.00 | 64 | 1005.8 |
| 20260831110817 | 68 | 94 | 5.2 | 11.3 | 0.00 | 0.00 | 0.00 | 62 | 1005.9 |
| 20260831105756 | 68 | 93 | 6.1 | 12.2 | 0.00 | 0.00 | 0.00 | 59 | 1005.7 |
| 20260831104807 | 69 | 113 | 7.0 | 12.2 | 0.00 | 0.00 | 0.00 | 58 | 1005.7 |
| 20260831103757 | 69 | 109 | 5.2 | 9.6 | 0.00 | 0.00 | 0.00 | 57 | 1005.7 |
| 20260831102809 | 69 | 130 | 3.5 | 14.8 | 0.00 | 0.00 | 0.00 | 54 | 1005.6 |
| 20260831101816 | 69 | 116 | 6.1 | 14.8 | 0.00 | 0.00 | 0.00 | 55 | 1005.7 |
| 20260831100829 | 69 | 106 | 4.3 | 8.7 | 0.00 | 0.00 | 0.00 | 53 | 1005.5 |
| 20260831095828 | 68 | 81 | 4.3 | 9.6 | 0.00 | 0.00 | 0.00 | 55 | 1005.4 |
| 20260831094814 | 68 | 83 | 3.5 | 9.6 | 0.00 | 0.00 | 0.00 | 55 | 1005.3 |
| 20260831093800 | 70 | 129 | 2.6 | 5.2 | 0.00 | 0.00 | 0.00 | 53 | 1004.9 |
| 20260831091710 | 69 | 120 | 5.2 | 7.8 | 0.00 | 0.00 | 0.00 | 55 | 1004.8 |
| 20260831090705 | 68 | 158 | 4.3 | 8.7 | 0.00 | 0.00 | 0.00 | 55 | 1004.5 |
| 20260831085720 | 68 | 138 | 4.3 | 8.7 | 0.00 | 0.00 | 0.00 | 56 | 1004.5 |
| 20260831083605 | 69 | 121 | 3.5 | 7.8 | 0.00 | 0.00 | 0.00 | 54 | 1004.4 |
| 20260831082557 | 69 | 87 | 2.6 | 7.8 | 0.00 | 0.00 | 0.00 | 54 | 1004.5 |
| 20260831081610 | 70 | 47 | 0.9 | 3.5 | 0.00 | 0.00 | 0.00 | 53 | 1004.3 |
| 20260831080540 | 70 | 137 | 3.5 | 9.6 | 0.00 | 0.00 | 0.00 | 56 | 1004.3 |
| 20260831075520 | 68 | 125 | 4.3 | 9.6 | 0.00 | 0.00 | 0.00 | 61 | 1004.4 |
| 20260831073423 | 70 | 313 | 0.0 | 2.6 | 0.00 | 0.00 | 0.00 | 56 | 1005.3 |
| 20260831071257 | 71 | 75 | 0.9 | 1.7 | 0.00 | 0.00 | 0.00 | 49 | 1004.8 |